Wetterdaten: Freitag, 17.06.2016
Datum Zeit Temp. A. Temp. A. max Feuchte A. Luftdruck Regen Wind Richtung Richtung Sonnenschein ET UV Solar Taupunkt Windben
17.06.2016 00:00 9,9 C 9,7 C 88 % 1006,2 hPa 0,0 mm 0,0 km/h (0 Bft) S 180 0 min 0,000 mm 0,0 UV-I 0 W/m 8,0 C 0,0 km/h (0 Bft)
17.06.2016 00:05 9,8 C 9,6 C 88 % 1006,2 hPa 0,0 mm 0,0 km/h (0 Bft) W 270 0 min 0,000 mm 0,0 UV-I 0 W/m 7,9 C 0,0 km/h (0 Bft)
17.06.2016 00:10 9,8 C 9,6 C 88 % 1006,2 hPa 0,0 mm 0,0 km/h (0 Bft) O 90 0 min 0,000 mm 0,0 UV-I 0 W/m 7,9 C 0,0 km/h (0 Bft)
17.06.2016 00:15 9,7 C 9,6 C 88 % 1006,1 hPa 0,0 mm 0,0 km/h (0 Bft) O-SO 112 0 min 0,000 mm 0,0 UV-I 0 W/m 7,8 C 0,0 km/h (0 Bft)
17.06.2016 00:20 9,7 C 9,5 C 88 % 1006,1 hPa 0,0 mm 0,0 km/h (0 Bft) W 270 0 min 0,000 mm 0,0 UV-I 0 W/m 7,8 C 0,0 km/h (0 Bft)
17.06.2016 00:25 9,6 C 9,4 C 88 % 1006,1 hPa 0,0 mm 0,0 km/h (0 Bft) SW 225 0 min 0,000 mm 0,0 UV-I 0 W/m 7,7 C 0,0 km/h (0 Bft)
17.06.2016 00:26 9,6 C 9,4 C 88 % 1006,1 hPa 0,0 mm 0,0 km/h (0 Bft) SO 135 0 min 0,000 mm 0,0 UV-I 0 W/m 7,7 C 0,0 km/h (0 Bft)
17.06.2016 00:30 9,6 C 9,4 C 88 % 1006,1 hPa 0,0 mm 0,0 km/h (0 Bft) SO 135 0 min 0,000 mm 0,0 UV-I 0 W/m 7,7 C 0,0 km/h (0 Bft)
17.06.2016 00:35 9,6 C 9,4 C 88 % 1005,9 hPa 0,0 mm 0,3 km/h (0 Bft) W-NW 292 0 min 0,000 mm 0,0 UV-I 0 W/m 7,7 C 0,0 km/h (0 Bft)
17.06.2016 00:40 9,6 C 9,4 C 88 % 1005,9 hPa 0,0 mm 0,3 km/h (0 Bft) SO 135 0 min 0,000 mm 0,0 UV-I 0 W/m 7,7 C 0,0 km/h (0 Bft)
17.06.2016 00:45 9,6 C 9,4 C 88 % 1005,9 hPa 0,0 mm 0,0 km/h (0 Bft) W-SW 247 0 min 0,000 mm 0,0 UV-I 0 W/m 7,7 C 0,0 km/h (0 Bft)
17.06.2016 00:50 9,6 C 9,4 C 88 % 1005,9 hPa 0,0 mm 0,0 km/h (0 Bft) N-NW 337 0 min 0,000 mm 0,0 UV-I 0 W/m 7,7 C 0,0 km/h (0 Bft)
17.06.2016 00:55 9,7 C 9,5 C 88 % 1005,9 hPa 0,0 mm 0,0 km/h (0 Bft) W 270 0 min 0,000 mm 0,0 UV-I 0 W/m 7,8 C 0,0 km/h (0 Bft)
17.06.2016 01:00 9,6 C 9,4 C 88 % 1005,9 hPa 0,0 mm 0,0 km/h (0 Bft) SW 225 0 min 0,000 mm 0,0 UV-I 0 W/m 7,7 C 0,0 km/h (0 Bft)
17.06.2016 01:05 9,6 C 9,4 C 88 % 1005,9 hPa 0,7 mm 0,3 km/h (0 Bft) W-SW 247 0 min 0,000 mm 0,0 UV-I 0 W/m 7,7 C 0,0 km/h (0 Bft)
17.06.2016 01:10 9,6 C 9,4 C 88 % 1005,9 hPa 0,0 mm 0,6 km/h (0 Bft) W 270 0 min 0,000 mm 0,0 UV-I 0 W/m 7,7 C 6,3 km/h (2 Bft)
17.06.2016 01:15 9,6 C 9,4 C 88 % 1005,4 hPa 0,0 mm 0,3 km/h (0 Bft) W 270 0 min 0,000 mm 0,0 UV-I 0 W/m 7,7 C 10,1 km/h (2 Bft)
17.06.2016 01:20 9,5 C 9,3 C 88 % 1005,4 hPa 0,0 mm 0,3 km/h (0 Bft) W 270 0 min 0,000 mm 0,0 UV-I 0 W/m 7,6 C 3,3 km/h (1 Bft)
17.06.2016 01:25 9,5 C 9,3 C 88 % 1005,4 hPa 0,0 mm 0,3 km/h (0 Bft) W-SW 247 0 min 0,000 mm 0,0 UV-I 0 W/m 7,6 C 0,0 km/h (0 Bft)
17.06.2016 01:30 9,3 C 9,2 C 88 % 1005,4 hPa 0,0 mm 1,8 km/h (1 Bft) S-SO 157 0 min 0,000 mm 0,0 UV-I 0 W/m 7,4 C 8,6 km/h (2 Bft)
17.06.2016 01:35 9,2 C 9,0 C 88 % 1005,8 hPa 0,0 mm 3,6 km/h (1 Bft) W-NW 292 0 min 0,000 mm 0,0 UV-I 0 W/m 7,3 C 11,9 km/h (2 Bft)
17.06.2016 01:40 9,2 C 9,0 C 88 % 1005,8 hPa 0,0 mm 2,1 km/h (1 Bft) SW 225 0 min 0,000 mm 0,0 UV-I 0 W/m 7,3 C 0,0 km/h (0 Bft)
17.06.2016 01:45 9,1 C 8,9 C 88 % 1005,8 hPa 0,0 mm 0,9 km/h (0 Bft) W 270 0 min 0,000 mm 0,0 UV-I 0 W/m 7,2 C 8,9 km/h (2 Bft)
17.06.2016 01:50 9,1 C 8,9 C 88 % 1005,8 hPa 0,0 mm 0,9 km/h (0 Bft) W-SW 247 0 min 0,000 mm 0,0 UV-I 0 W/m 7,2 C 0,0 km/h (0 Bft)
17.06.2016 01:55 9,0 C 8,8 C 88 % 1005,8 hPa 0,0 mm 0,6 km/h (0 Bft) S 180 0 min 0,000 mm 0,0 UV-I 0 W/m 7,1 C 0,0 km/h (0 Bft)
17.06.2016 02:00 9,0 C 8,8 C 88 % 1005,8 hPa 0,0 mm 1,2 km/h (1 Bft) SW 225 0 min 0,000 mm 0,0 UV-I 0 W/m 7,1 C 6,9 km/h (2 Bft)
17.06.2016 02:05 9,0 C 8,8 C 88 % 1005,8 hPa 0,0 mm 3,0 km/h (1 Bft) S-SW 202 0 min 0,000 mm 0,0 UV-I 0 W/m 7,1 C 0,0 km/h (0 Bft)
17.06.2016 02:10 9,0 C 8,8 C 88 % 1005,8 hPa 0,0 mm 2,4 km/h (1 Bft) N-NW 337 0 min 0,000 mm 0,0 UV-I 0 W/m 7,1 C 0,0 km/h (0 Bft)
17.06.2016 02:15 8,9 C 8,7 C 88 % 1005,9 hPa 0,7 mm 0,6 km/h (0 Bft) W 270 0 min 0,000 mm 0,0 UV-I 0 W/m 7,0 C 0,0 km/h (0 Bft)
17.06.2016 02:20 8,9 C 8,7 C 88 % 1005,9 hPa 0,0 mm 1,5 km/h (1 Bft) W 270 0 min 0,000 mm 0,0 UV-I 0 W/m 7,0 C 7,7 km/h (2 Bft)
17.06.2016 02:25 8,9 C 8,7 C 88 % 1005,9 hPa 0,0 mm 2,4 km/h (1 Bft) SW 225 0 min 0,000 mm 0,0 UV-I 0 W/m 7,0 C 0,0 km/h (0 Bft)
17.06.2016 02:30 8,8 C 8,6 C 88 % 1005,9 hPa 0,0 mm 3,3 km/h (1 Bft) S 180 0 min 0,000 mm 0,0 UV-I 0 W/m 6,9 C 8,6 km/h (2 Bft)
17.06.2016 02:35 8,7 C 8,5 C 88 % 1006,1 hPa 0,0 mm 3,9 km/h (1 Bft) SW 225 0 min 0,000 mm 0,0 UV-I 0 W/m 6,8 C 25,0 km/h (4 Bft)
17.06.2016 02:40 8,7 C 8,5 C 88 % 1006,1 hPa 0,0 mm 3,3 km/h (1 Bft) W 270 0 min 0,000 mm 0,0 UV-I 0 W/m 6,8 C 0,0 km/h (0 Bft)
17.06.2016 02:45 8,6 C 8,4 C 88 % 1006,1 hPa 0,7 mm 4,2 km/h (1 Bft) O-NO 67 0 min 0,000 mm 0,0 UV-I 0 W/m 6,7 C 0,0 km/h (0 Bft)
17.06.2016 02:50 8,5 C 8,3 C 88 % 1006,1 hPa 0,0 mm 4,8 km/h (1 Bft) SW 225 0 min 0,000 mm 0,0 UV-I 0 W/m 6,6 C 0,0 km/h (0 Bft)
17.06.2016 02:55 8,5 C 8,3 C 88 % 1006,1 hPa 0,7 mm 2,4 km/h (1 Bft) NO 45 0 min 0,000 mm 0,0 UV-I 0 W/m 6,6 C 0,0 km/h (0 Bft)
17.06.2016 03:00 8,5 C 8,3 C 88 % 1006,1 hPa 0,0 mm 1,5 km/h (1 Bft) S-SW 202 0 min 0,000 mm 0,0 UV-I 0 W/m 6,6 C 0,0 km/h (0 Bft)
17.06.2016 03:05 8,5 C 8,3 C 88 % 1006,1 hPa 0,7 mm 0,0 km/h (0 Bft) W 270 0 min 0,000 mm 0,0 UV-I 0 W/m 6,6 C 0,0 km/h (0 Bft)
17.06.2016 03:10 8,4 C 8,2 C 88 % 1006,1 hPa 0,0 mm 0,6 km/h (0 Bft) SW 225 0 min 0,000 mm 0,0 UV-I 0 W/m 6,5 C 6,3 km/h (2 Bft)
17.06.2016 03:15 8,3 C 8,1 C 88 % 1006,2 hPa 0,0 mm 3,3 km/h (1 Bft) SW 225 0 min 0,000 mm 0,0 UV-I 0 W/m 6,4 C 8,9 km/h (2 Bft)
17.06.2016 03:20 8,3 C 8,1 C 88 % 1006,2 hPa 0,7 mm 3,6 km/h (1 Bft) S 180 0 min 0,000 mm 0,0 UV-I 0 W/m 6,4 C 0,0 km/h (0 Bft)
17.06.2016 03:25 8,2 C 8,0 C 88 % 1006,2 hPa 0,0 mm 3,3 km/h (1 Bft) SW 225 0 min 0,000 mm 0,0 UV-I 0 W/m 6,3 C 12,8 km/h (3 Bft)
17.06.2016 03:26 8,1 C 7,9 C 88 % 1006,2 hPa 0,7 mm 6,3 km/h (2 Bft) SW 225 0 min 0,000 mm 0,0 UV-I 0 W/m 6,2 C 6,9 km/h (2 Bft)
17.06.2016 03:31 8,1 C 7,9 C 88 % 1006,2 hPa 0,0 mm 6,3 km/h (2 Bft) SW 225 0 min 0,000 mm 0,0 UV-I 0 W/m 6,2 C 6,9 km/h (2 Bft)
17.06.2016 03:35 8,1 C 7,8 C 88 % 1006,8 hPa 0,0 mm 7,5 km/h (2 Bft) W-SW 247 0 min 0,000 mm 0,0 UV-I 0 W/m 6,2 C 25,3 km/h (4 Bft)
17.06.2016 03:40 8,1 C 7,9 C 88 % 1006,8 hPa 0,7 mm 4,2 km/h (1 Bft) SW 225 0 min 0,000 mm 0,0 UV-I 0 W/m 6,2 C 0,0 km/h (0 Bft)
17.06.2016 03:45 8,0 C 7,8 C 88 % 1006,8 hPa 0,0 mm 1,8 km/h (1 Bft) W-SW 247 0 min 0,000 mm 0,0 UV-I 0 W/m 6,1 C 5,4 km/h (1 Bft)
17.06.2016 03:50 7,9 C 7,7 C 88 % 1006,8 hPa 0,0 mm 1,5 km/h (1 Bft) W-SW 247 0 min 0,000 mm 0,0 UV-I 0 W/m 6,0 C 4,8 km/h (1 Bft)
17.06.2016 03:55 7,9 C 7,7 C 88 % 1006,9 hPa 0,0 mm 4,2 km/h (1 Bft) SW 225 0 min 0,000 mm 0,0 UV-I 0 W/m 6,0 C 10,1 km/h (2 Bft)
17.06.2016 04:00 7,8 C 7,6 C 88 % 1006,9 hPa 0,0 mm 5,4 km/h (1 Bft) W-SW 247 0 min 0,000 mm 0,0 UV-I 0 W/m 5,9 C 9,8 km/h (2 Bft)
17.06.2016 04:05 7,8 C 7,6 C 88 % 1006,9 hPa 0,0 mm 4,8 km/h (1 Bft) S 180 0 min 0,000 mm 0,0 UV-I 0 W/m 5,9 C 0,0 km/h (0 Bft)
17.06.2016 04:10 7,8 C 7,6 C 88 % 1006,9 hPa 0,0 mm 3,9 km/h (1 Bft) S 180 0 min 0,000 mm 0,0 UV-I 0 W/m 5,9 C 4,8 km/h (1 Bft)
17.06.2016 04:15 7,7 C 7,5 C 88 % 1006,8 hPa 0,0 mm 3,0 km/h (1 Bft) W-SW 247 0 min 0,000 mm 0,0 UV-I 0 W/m 5,8 C 16,4 km/h (3 Bft)
17.06.2016 04:20 7,7 C 7,5 C 88 % 1006,8 hPa 0,7 mm 4,8 km/h (1 Bft) SW 225 0 min 0,000 mm 0,0 UV-I 0 W/m 5,8 C 4,2 km/h (1 Bft)
17.06.2016 04:25 7,6 C 7,4 C 88 % 1006,8 hPa 0,0 mm 4,8 km/h (1 Bft) SW 225 0 min 0,000 mm 0,0 UV-I 0 W/m 5,7 C 5,1 km/h (1 Bft)
17.06.2016 04:30 7,5 C 7,3 C 88 % 1006,8 hPa 0,0 mm 3,6 km/h (1 Bft) SW 225 0 min 0,000 mm 0,0 UV-I 0 W/m 5,6 C 10,7 km/h (2 Bft)
17.06.2016 04:35 7,5 C 7,3 C 88 % 1007,0 hPa 0,0 mm 2,7 km/h (1 Bft) NO 45 0 min 0,000 mm 0,0 UV-I 0 W/m 5,6 C 0,0 km/h (0 Bft)
17.06.2016 04:40 7,4 C 7,2 C 88 % 1007,0 hPa 0,0 mm 3,0 km/h (1 Bft) N-NW 337 0 min 0,000 mm 0,0 UV-I 0 W/m 5,5 C 0,0 km/h (0 Bft)
17.06.2016 04:45 7,4 C 7,2 C 88 % 1007,0 hPa 0,0 mm 0,9 km/h (0 Bft) S-SW 202 0 min 0,000 mm 0,0 UV-I 0 W/m 5,5 C 0,0 km/h (0 Bft)
17.06.2016 04:50 7,3 C 7,1 C 88 % 1007,0 hPa 0,0 mm 0,6 km/h (0 Bft) S-SO 157 0 min 0,000 mm 0,0 UV-I 0 W/m 5,4 C 0,0 km/h (0 Bft)
17.06.2016 04:55 7,3 C 7,1 C 88 % 1007,1 hPa 0,7 mm 1,5 km/h (1 Bft) S 180 0 min 0,000 mm 0,0 UV-I 0 W/m 5,4 C 7,7 km/h (2 Bft)
17.06.2016 05:00 7,3 C 7,1 C 88 % 1007,1 hPa 0,0 mm 3,0 km/h (1 Bft) SW 225 0 min 0,000 mm 0,0 UV-I 0 W/m 5,4 C 14,0 km/h (3 Bft)
17.06.2016 05:05 7,3 C 7,1 C 88 % 1007,1 hPa 0,0 mm 5,7 km/h (1 Bft) NW 315 0 min 0,000 mm 0,0 UV-I 0 W/m 5,4 C 6,9 km/h (2 Bft)
17.06.2016 05:10 7,3 C 7,1 C 88 % 1007,1 hPa 0,0 mm 3,9 km/h (1 Bft) S 180 0 min 0,000 mm 0,0 UV-I 0 W/m 5,4 C 8,9 km/h (2 Bft)
17.06.2016 05:15 7,3 C 7,1 C 88 % 1007,2 hPa 0,0 mm 1,8 km/h (1 Bft) W 270 0 min 0,000 mm 0,0 UV-I 0 W/m 5,4 C 5,4 km/h (1 Bft)
17.06.2016 05:20 7,3 C 7,1 C 88 % 1007,2 hPa 0,0 mm 1,8 km/h (1 Bft) SW 225 0 min 0,000 mm 0,0 UV-I 0 W/m 5,4 C 0,0 km/h (0 Bft)
17.06.2016 05:25 7,3 C 7,1 C 88 % 1007,2 hPa 0,0 mm 1,2 km/h (1 Bft) S 180 0 min 0,000 mm 0,0 UV-I 0 W/m 5,4 C 0,0 km/h (0 Bft)
17.06.2016 05:30 7,3 C 7,1 C 88 % 1007,2 hPa 0,0 mm 0,6 km/h (0 Bft) S-SW 202 0 min 0,000 mm 0,0 UV-I 0 W/m 5,4 C 3,9 km/h (1 Bft)
17.06.2016 05:35 7,2 C 7,0 C 88 % 1007,4 hPa 0,0 mm 0,6 km/h (0 Bft) W-SW 247 0 min 0,000 mm 0,0 UV-I 0 W/m 5,3 C 6,0 km/h (2 Bft)
17.06.2016 05:40 7,2 C 7,0 C 88 % 1007,4 hPa 0,0 mm 0,6 km/h (0 Bft) NW 315 0 min 0,000 mm 0,0 UV-I 0 W/m 5,3 C 0,0 km/h (0 Bft)
17.06.2016 05:45 7,2 C 7,0 C 88 % 1007,4 hPa 0,0 mm 0,3 km/h (0 Bft) W-SW 247 0 min 0,000 mm 0,0 UV-I 0 W/m 5,3 C 0,0 km/h (0 Bft)
17.06.2016 05:50 7,2 C 7,0 C 88 % 1007,4 hPa 0,0 mm 0,9 km/h (0 Bft) S 180 0 min 0,000 mm 0,0 UV-I 0 W/m 5,3 C 0,0 km/h (0 Bft)
17.06.2016 05:55 7,3 C 7,1 C 88 % 1007,7 hPa 0,7 mm 0,9 km/h (0 Bft) S 180 0 min 0,000 mm 0,0 UV-I 0 W/m 5,4 C 0,0 km/h (0 Bft)
17.06.2016 06:00 7,3 C 7,1 C 88 % 1007,7 hPa 0,0 mm 0,0 km/h (0 Bft) W-SW 247 0 min 0,000 mm 0,0 UV-I 0 W/m 5,4 C 0,0 km/h (0 Bft)
17.06.2016 06:05 7,4 C 7,2 C 88 % 1007,7 hPa 0,0 mm 0,0 km/h (0 Bft) W-SW 247 0 min 0,000 mm 0,0 UV-I 0 W/m 5,5 C 0,0 km/h (0 Bft)
17.06.2016 06:10 7,4 C 7,2 C 88 % 1007,7 hPa 0,0 mm 0,0 km/h (0 Bft) W-SW 247 0 min 0,000 mm 0,0 UV-I 0 W/m 5,5 C 0,0 km/h (0 Bft)
17.06.2016 06:15 7,5 C 7,4 C 88 % 1007,9 hPa 0,0 mm 0,9 km/h (0 Bft) S-SW 202 0 min 0,000 mm 0,0 UV-I 0 W/m 5,6 C 6,0 km/h (2 Bft)
17.06.2016 06:20 7,5 C 7,4 C 88 % 1007,9 hPa 0,0 mm 1,2 km/h (1 Bft) S 180 0 min 0,000 mm 0,0 UV-I 0 W/m 5,6 C 0,0 km/h (0 Bft)
17.06.2016 06:25 7,5 C 7,3 C 88 % 1007,9 hPa 0,0 mm 0,6 km/h (0 Bft) W 270 0 min 0,000 mm 0,0 UV-I 0 W/m 5,6 C 0,0 km/h (0 Bft)
17.06.2016 06:30 7,5 C 7,3 C 88 % 1007,9 hPa 0,0 mm 0,6 km/h (0 Bft) W-SW 247 0 min 0,000 mm 0,0 UV-I 0 W/m 5,6 C 0,0 km/h (0 Bft)
17.06.2016 06:31 7,5 C 7,3 C 88 % 1007,9 hPa 0,0 mm 1,2 km/h (1 Bft) S 180 0 min 0,000 mm 0,0 UV-I 0 W/m 5,6 C 0,0 km/h (0 Bft)
17.06.2016 06:32 7,5 C 7,3 C 88 % 1007,9 hPa 0,0 mm 1,2 km/h (1 Bft) S 180 0 min 0,000 mm 0,0 UV-I 0 W/m 5,6 C 0,0 km/h (0 Bft)
17.06.2016 06:35 7,5 C 7,3 C 88 % 1007,9 hPa 0,0 mm 1,2 km/h (1 Bft) S 180 0 min 0,000 mm 0,0 UV-I 0 W/m 5,6 C 0,0 km/h (0 Bft)
17.06.2016 06:40 7,5 C 7,3 C 88 % 1007,9 hPa 0,7 mm 1,2 km/h (1 Bft) W 270 0 min 0,000 mm 0,0 UV-I 0 W/m 5,6 C 0,0 km/h (0 Bft)
17.06.2016 06:45 7,5 C 7,3 C 88 % 1007,9 hPa 0,0 mm 0,6 km/h (0 Bft) SW 225 0 min 0,000 mm 0,0 UV-I 0 W/m 5,6 C 0,0 km/h (0 Bft)
17.06.2016 06:50 7,5 C 7,3 C 88 % 1007,9 hPa 0,0 mm 0,9 km/h (0 Bft) W-NW 292 0 min 0,000 mm 0,0 UV-I 0 W/m 5,6 C 0,0 km/h (0 Bft)
17.06.2016 06:55 7,7 C 7,5 C 88 % 1008,1 hPa 0,0 mm 2,4 km/h (1 Bft) W-SW 247 0 min 0,000 mm 0,0 UV-I 0 W/m 5,8 C 6,0 km/h (2 Bft)
17.06.2016 07:00 7,8 C 7,6 C 88 % 1008,1 hPa 0,0 mm 2,1 km/h (1 Bft) W-SW 247 0 min 0,000 mm 0,0 UV-I 0 W/m 5,9 C 0,0 km/h (0 Bft)
17.06.2016 07:05 8,0 C 7,8 C 88 % 1008,1 hPa 0,0 mm 1,2 km/h (1 Bft) S-SW 202 0 min 0,000 mm 0,0 UV-I 0 W/m 6,1 C 4,5 km/h (1 Bft)
17.06.2016 07:10 8,1 C 7,9 C 88 % 1008,1 hPa 0,0 mm 0,3 km/h (0 Bft) SW 225 0 min 0,000 mm 0,0 UV-I 0 W/m 6,2 C 0,0 km/h (0 Bft)
17.06.2016 07:15 8,2 C 8,0 C 88 % 1008,2 hPa 0,0 mm 1,8 km/h (1 Bft) N-NO 22 0 min 0,000 mm 0,0 UV-I 0 W/m 6,3 C 8,3 km/h (2 Bft)
17.06.2016 07:20 8,2 C 8,0 C 88 % 1008,2 hPa 0,0 mm 1,5 km/h (1 Bft) W-SW 247 0 min 0,000 mm 0,0 UV-I 0 W/m 6,3 C 0,0 km/h (0 Bft)
17.06.2016 07:25 8,2 C 8,1 C 88 % 1008,2 hPa 0,0 mm 0,6 km/h (0 Bft) O-NO 67 0 min 0,000 mm 0,0 UV-I 0 W/m 6,3 C 0,0 km/h (0 Bft)
17.06.2016 07:30 8,2 C 8,1 C 88 % 1008,2 hPa 0,0 mm 0,3 km/h (0 Bft) S-SO 157 0 min 0,000 mm 0,0 UV-I 0 W/m 6,3 C 0,0 km/h (0 Bft)
17.06.2016 07:35 8,4 C 8,2 C 88 % 1008,4 hPa 0,0 mm 0,0 km/h (0 Bft) W-SW 247 0 min 0,000 mm 0,0 UV-I 0 W/m 6,5 C 0,0 km/h (0 Bft)
17.06.2016 07:40 8,5 C 8,4 C 88 % 1008,4 hPa 0,0 mm 0,0 km/h (0 Bft) SW 225 0 min 0,000 mm 0,0 UV-I 0 W/m 6,6 C 0,0 km/h (0 Bft)
17.06.2016 07:45 8,7 C 8,5 C 88 % 1008,4 hPa 0,0 mm 0,6 km/h (0 Bft) O-SO 112 0 min 0,000 mm 0,0 UV-I 0 W/m 6,8 C 0,0 km/h (0 Bft)
17.06.2016 07:50 8,7 C 8,6 C 88 % 1008,4 hPa 0,0 mm 0,6 km/h (0 Bft) S-SO 157 0 min 0,000 mm 0,0 UV-I 0 W/m 6,8 C 0,0 km/h (0 Bft)
17.06.2016 07:55 8,7 C 8,6 C 88 % 1008,9 hPa 0,0 mm 0,0 km/h (0 Bft) S 180 0 min 0,000 mm 0,0 UV-I 0 W/m 6,8 C 0,0 km/h (0 Bft)
17.06.2016 08:00 8,8 C 8,7 C 88 % 1008,9 hPa 0,0 mm 0,0 km/h (0 Bft) W-SW 247 0 min 0,000 mm 0,0 UV-I 0 W/m 6,9 C 0,0 km/h (0 Bft)
17.06.2016 08:05 8,9 C 8,8 C 88 % 1008,9 hPa 0,0 mm 0,0 km/h (0 Bft) W 270 0 min 0,000 mm 0,0 UV-I 0 W/m 7,0 C 0,0 km/h (0 Bft)
17.06.2016 08:10 9,0 C 8,9 C 88 % 1008,9 hPa 0,0 mm 0,3 km/h (0 Bft) N-NO 22 0 min 0,000 mm 0,0 UV-I 0 W/m 7,1 C 0,0 km/h (0 Bft)
17.06.2016 08:15 9,4 C 9,2 C 88 % 1009,0 hPa 0,0 mm 0,3 km/h (0 Bft) W 270 0 min 0,000 mm 0,0 UV-I 0 W/m 7,5 C 0,0 km/h (0 Bft)
17.06.2016 08:20 9,6 C 9,4 C 87 % 1009,0 hPa 0,0 mm 0,0 km/h (0 Bft) W 270 0 min 0,000 mm 0,0 UV-I 0 W/m 7,5 C 0,0 km/h (0 Bft)
17.06.2016 08:25 9,8 C 9,6 C 87 % 1009,0 hPa 0,0 mm 0,3 km/h (0 Bft) NW 315 0 min 0,000 mm 0,0 UV-I 0 W/m 7,7 C 4,2 km/h (1 Bft)
17.06.2016 08:30 10,0 C 9,8 C 87 % 1009,0 hPa 0,0 mm 0,6 km/h (0 Bft) W-SW 247 0 min 0,000 mm 0,0 UV-I 0 W/m 7,9 C 4,8 km/h (1 Bft)
17.06.2016 08:35 10,6 C 10,4 C 86 % 1009,2 hPa 0,0 mm 1,2 km/h (1 Bft) W 270 0 min 0,000 mm 0,0 UV-I 0 W/m 8,4 C 10,7 km/h (2 Bft)
17.06.2016 08:40 11,0 C 11,0 C 86 % 1009,2 hPa 0,0 mm 1,2 km/h (1 Bft) W 270 0 min 0,000 mm 0,0 UV-I 0 W/m 8,7 C 0,0 km/h (0 Bft)
17.06.2016 08:45 11,2 C 11,6 C 86 % 1009,2 hPa 0,0 mm 1,2 km/h (1 Bft) W-SW 247 0 min 0,000 mm 0,0 UV-I 0 W/m 8,9 C 0,0 km/h (0 Bft)
17.06.2016 08:50 11,3 C 12,0 C 85 % 1009,2 hPa 0,0 mm 1,8 km/h (1 Bft) S-SW 202 0 min 0,000 mm 0,0 UV-I 0 W/m 8,9 C 12,5 km/h (3 Bft)
17.06.2016 08:55 11,5 C 12,5 C 85 % 1009,7 hPa 0,0 mm 1,8 km/h (1 Bft) W-SW 247 0 min 0,000 mm 0,0 UV-I 0 W/m 9,1 C 3,9 km/h (1 Bft)
17.06.2016 09:00 11,7 C 12,9 C 84 % 1009,7 hPa 0,0 mm 2,1 km/h (1 Bft) W-SW 247 0 min 0,000 mm 0,0 UV-I 0 W/m 9,1 C 4,5 km/h (1 Bft)
17.06.2016 09:05 11,7 C 13,3 C 83 % 1009,7 hPa 0,0 mm 2,7 km/h (1 Bft) S-SW 202 0 min 0,000 mm 0,0 UV-I 0 W/m 8,9 C 3,0 km/h (1 Bft)
17.06.2016 09:10 11,8 C 13,5 C 83 % 1009,7 hPa 0,0 mm 3,3 km/h (1 Bft) W 270 0 min 0,000 mm 0,0 UV-I 0 W/m 9,0 C 6,9 km/h (2 Bft)
17.06.2016 09:15 11,8 C 13,5 C 82 % 1009,8 hPa 0,0 mm 2,7 km/h (1 Bft) S-SO 157 0 min 0,000 mm 0,0 UV-I 0 W/m 8,8 C 0,0 km/h (0 Bft)
17.06.2016 09:20 11,7 C 13,5 C 81 % 1009,8 hPa 0,0 mm 2,1 km/h (1 Bft) S 180 0 min 0,000 mm 0,0 UV-I 0 W/m 8,5 C 8,9 km/h (2 Bft)
17.06.2016 09:25 11,5 C 12,5 C 81 % 1009,8 hPa 0,0 mm 1,5 km/h (1 Bft) W 270 0 min 0,000 mm 0,0 UV-I 0 W/m 8,4 C 0,0 km/h (0 Bft)
17.06.2016 09:30 11,4 C 12,1 C 81 % 1009,8 hPa 0,0 mm 1,8 km/h (1 Bft) S-SO 157 0 min 0,000 mm 0,0 UV-I 0 W/m 8,3 C 0,0 km/h (0 Bft)
17.06.2016 09:31 11,4 C 11,7 C 81 % 1010,5 hPa 0,0 mm 1,8 km/h (1 Bft) NW 315 0 min 0,000 mm 0,0 UV-I 0 W/m 8,3 C 3,3 km/h (1 Bft)
17.06.2016 09:33 11,4 C 11,7 C 81 % 1010,5 hPa 0,0 mm 1,8 km/h (1 Bft) NW 315 0 min 0,000 mm 0,0 UV-I 0 W/m 8,3 C 3,3 km/h (1 Bft)
17.06.2016 09:35 11,4 C 11,7 C 81 % 1010,5 hPa 0,0 mm 1,8 km/h (1 Bft) NW 315 0 min 0,000 mm 0,0 UV-I 0 W/m 8,3 C 3,3 km/h (1 Bft)
17.06.2016 09:40 11,6 C 11,7 C 81 % 1010,5 hPa 0,0 mm 1,5 km/h (1 Bft) SW 225 0 min 0,000 mm 0,0 UV-I 0 W/m 8,5 C 0,0 km/h (0 Bft)
17.06.2016 09:45 12,0 C 12,2 C 81 % 1010,5 hPa 0,0 mm 1,5 km/h (1 Bft) W-NW 292 0 min 0,000 mm 0,0 UV-I 0 W/m 8,8 C 3,6 km/h (1 Bft)
17.06.2016 09:50 12,4 C 12,7 C 81 % 1010,5 hPa 0,0 mm 1,5 km/h (1 Bft) W 270 0 min 0,000 mm 0,0 UV-I 0 W/m 9,2 C 0,0 km/h (0 Bft)
17.06.2016 09:55 13,9 C 14,8 C 79 % 1010,6 hPa 0,0 mm 3,0 km/h (1 Bft) S 180 0 min 0,000 mm 0,0 UV-I 0 W/m 10,3 C 11,0 km/h (2 Bft)
17.06.2016 10:00 14,1 C 16,6 C 76 % 1010,6 hPa 0,0 mm 4,8 km/h (1 Bft) NW 315 0 min 0,000 mm 0,0 UV-I 0 W/m 9,9 C 8,3 km/h (2 Bft)
17.06.2016 10:05 14,3 C 17,8 C 75 % 1010,6 hPa 0,0 mm 6,3 km/h (2 Bft) SO 135 0 min 0,000 mm 0,0 UV-I 0 W/m 9,9 C 10,1 km/h (2 Bft)
17.06.2016 10:10 13,8 C 17,4 C 73 % 1010,6 hPa 0,0 mm 6,9 km/h (2 Bft) W-NW 292 0 min 0,000 mm 0,0 UV-I 0 W/m 9,0 C 30,4 km/h (5 Bft)
17.06.2016 10:15 13,4 C 16,2 C 73 % 1010,9 hPa 0,0 mm 8,0 km/h (2 Bft) S-SO 157 0 min 0,000 mm 0,0 UV-I 0 W/m 8,7 C 6,3 km/h (2 Bft)
17.06.2016 10:20 13,5 C 16,1 C 74 % 1010,9 hPa 0,0 mm 7,5 km/h (2 Bft) W-SW 247 0 min 0,000 mm 0,0 UV-I 0 W/m 9,0 C 8,9 km/h (2 Bft)
17.06.2016 10:25 14,4 C 16,9 C 72 % 1010,9 hPa 0,0 mm 5,4 km/h (1 Bft) W-SW 247 0 min 0,000 mm 0,0 UV-I 0 W/m 9,4 C 6,9 km/h (2 Bft)
17.06.2016 10:30 14,3 C 17,3 C 71 % 1010,9 hPa 0,0 mm 5,7 km/h (1 Bft) W 270 0 min 0,000 mm 0,0 UV-I 0 W/m 9,1 C 0,0 km/h (0 Bft)
17.06.2016 10:35 14,2 C 17,0 C 70 % 1011,5 hPa 0,0 mm 6,6 km/h (2 Bft) NW 315 0 min 0,000 mm 0,0 UV-I 0 W/m 8,8 C 10,7 km/h (2 Bft)
17.06.2016 10:40 14,1 C 16,7 C 70 % 1011,5 hPa 0,0 mm 5,4 km/h (1 Bft) W-NW 292 0 min 0,000 mm 0,0 UV-I 0 W/m 8,7 C 14,0 km/h (3 Bft)
17.06.2016 10:45 14,3 C 16,8 C 70 % 1011,5 hPa 0,0 mm 5,1 km/h (1 Bft) W 270 0 min 0,000 mm 0,0 UV-I 0 W/m 8,9 C 10,1 km/h (2 Bft)
17.06.2016 10:50 14,3 C 17,1 C 69 % 1011,5 hPa 0,0 mm 5,7 km/h (1 Bft) S 180 0 min 0,000 mm 0,0 UV-I 0 W/m 8,7 C 7,5 km/h (2 Bft)
17.06.2016 10:55 14,4 C 17,3 C 67 % 1011,8 hPa 0,0 mm 5,7 km/h (1 Bft) NW 315 0 min 0,000 mm 0,0 UV-I 0 W/m 8,4 C 13,7 km/h (3 Bft)
17.06.2016 11:00 14,7 C 17,3 C 67 % 1011,8 hPa 0,0 mm 5,1 km/h (1 Bft) N-NW 337 0 min 0,000 mm 0,0 UV-I 0 W/m 8,6 C 4,5 km/h (1 Bft)
17.06.2016 11:05 14,6 C 17,4 C 66 % 1011,8 hPa 0,0 mm 6,6 km/h (2 Bft) W 270 0 min 0,000 mm 0,0 UV-I 0 W/m 8,3 C 11,0 km/h (2 Bft)
17.06.2016 11:10 14,4 C 17,1 C 64 % 1011,8 hPa 0,0 mm 8,3 km/h (2 Bft) S 180 0 min 0,000 mm 0,0 UV-I 0 W/m 7,7 C 15,5 km/h (3 Bft)
17.06.2016 11:15 14,3 C 16,7 C 65 % 1012,0 hPa 0,0 mm 9,5 km/h (2 Bft) NW 315 0 min 0,000 mm 0,0 UV-I 0 W/m 7,8 C 7,2 km/h (2 Bft)
17.06.2016 11:20 14,5 C 16,6 C 65 % 1012,0 hPa 0,0 mm 8,9 km/h (2 Bft) W 270 0 min 0,000 mm 0,0 UV-I 0 W/m 8,0 C 10,7 km/h (2 Bft)
17.06.2016 11:25 15,1 C 17,2 C 65 % 1012,0 hPa 0,0 mm 6,3 km/h (2 Bft) W 270 0 min 0,000 mm 0,0 UV-I 0 W/m 8,6 C 33,7 km/h (5 Bft)
17.06.2016 11:30 15,4 C 17,5 C 65 % 1012,0 hPa 0,0 mm 6,6 km/h (2 Bft) W 270 0 min 0,000 mm 0,0 UV-I 0 W/m 8,9 C 17,0 km/h (3 Bft)
17.06.2016 11:35 15,5 C 17,9 C 59 % 1012,6 hPa 0,0 mm 9,2 km/h (2 Bft) S 180 0 min 0,000 mm 0,0 UV-I 0 W/m 7,5 C 10,7 km/h (2 Bft)
17.06.2016 11:40 16,6 C 18,2 C 59 % 1012,6 hPa 0,0 mm 10,1 km/h (2 Bft) NW 315 0 min 0,000 mm 0,0 UV-I 0 W/m 8,6 C 8,0 km/h (2 Bft)
17.06.2016 11:45 17,9 C 20,0 C 55 % 1012,6 hPa 0,0 mm 9,5 km/h (2 Bft) N-NO 22 0 min 0,000 mm 0,0 UV-I 0 W/m 8,7 C 12,2 km/h (2 Bft)
17.06.2016 11:50 19,0 C 21,8 C 56 % 1012,6 hPa 0,0 mm 9,5 km/h (2 Bft) S-SO 157 0 min 0,000 mm 0,0 UV-I 0 W/m 10,0 C 11,3 km/h (2 Bft)
17.06.2016 11:55 17,6 C 21,8 C 55 % 1012,7 hPa 0,0 mm 7,5 km/h (2 Bft) O 90 0 min 0,000 mm 0,0 UV-I 0 W/m 8,5 C 15,5 km/h (3 Bft)
17.06.2016 12:00 17,1 C 21,0 C 54 % 1012,7 hPa 0,0 mm 8,3 km/h (2 Bft) W-NW 292 0 min 0,000 mm 0,0 UV-I 0 W/m 7,7 C 13,1 km/h (3 Bft)
17.06.2016 12:05 16,4 C 19,8 C 52 % 1012,7 hPa 0,0 mm 11,9 km/h (2 Bft) W 270 0 min 0,000 mm 0,0 UV-I 0 W/m 6,5 C 45,0 km/h (6 Bft)
17.06.2016 12:10 17,5 C 19,0 C 52 % 1012,7 hPa 0,0 mm 14,0 km/h (3 Bft) W 270 0 min 0,000 mm 0,0 UV-I 0 W/m 7,5 C 33,4 km/h (5 Bft)
17.06.2016 12:15 19,1 C 20,7 C 50 % 1012,9 hPa 0,0 mm 13,1 km/h (3 Bft) W-SW 247 0 min 0,000 mm 0,0 UV-I 0 W/m 8,4 C 17,9 km/h (3 Bft)
17.06.2016 12:20 18,4 C 21,4 C 49 % 1012,9 hPa 0,0 mm 12,2 km/h (2 Bft) W 270 0 min 0,000 mm 0,0 UV-I 0 W/m 7,5 C 7,2 km/h (2 Bft)
17.06.2016 12:25 19,2 C 21,7 C 49 % 1012,9 hPa 0,0 mm 10,1 km/h (2 Bft) W 270 0 min 0,000 mm 0,0 UV-I 0 W/m 8,2 C 17,3 km/h (3 Bft)
17.06.2016 12:30 19,7 C 22,3 C 48 % 1012,9 hPa 0,0 mm 9,2 km/h (2 Bft) SW 225 0 min 0,000 mm 0,0 UV-I 0 W/m 8,4 C 13,4 km/h (3 Bft)
17.06.2016 12:31 19,6 C 22,7 C 47 % 1013,3 hPa 0,0 mm 10,7 km/h (2 Bft) W-SW 247 0 min 0,000 mm 0,0 UV-I 0 W/m 8,0 C 14,6 km/h (3 Bft)
17.06.2016 12:34 19,6 C 22,7 C 47 % 1013,3 hPa 0,0 mm 10,7 km/h (2 Bft) W-SW 247 0 min 0,000 mm 0,0 UV-I 0 W/m 8,0 C 14,6 km/h (3 Bft)
17.06.2016 12:35 19,6 C 22,7 C 47 % 1013,3 hPa 0,0 mm 10,7 km/h (2 Bft) W-SW 247 0 min 0,000 mm 0,0 UV-I 0 W/m 8,0 C 14,6 km/h (3 Bft)
17.06.2016 12:40 19,0 C 22,6 C 46 % 1013,3 hPa 0,0 mm 12,2 km/h (2 Bft) W 270 0 min 0,000 mm 0,0 UV-I 0 W/m 7,1 C 27,4 km/h (4 Bft)
17.06.2016 12:45 18,8 C 21,4 C 47 % 1013,3 hPa 0,0 mm 13,7 km/h (3 Bft) W-SW 247 0 min 0,000 mm 0,0 UV-I 0 W/m 7,2 C 18,8 km/h (3 Bft)
17.06.2016 12:50 19,5 C 21,7 C 45 % 1013,3 hPa 0,0 mm 15,5 km/h (3 Bft) N-NW 337 0 min 0,000 mm 0,0 UV-I 0 W/m 7,2 C 16,1 km/h (3 Bft)
17.06.2016 12:55 19,4 C 22,1 C 46 % 1013,4 hPa 0,0 mm 12,5 km/h (3 Bft) W-NW 292 0 min 0,000 mm 0,0 UV-I 0 W/m 7,5 C 10,1 km/h (2 Bft)
17.06.2016 13:00 19,4 C 22,1 C 44 % 1013,4 hPa 0,0 mm 12,8 km/h (3 Bft) W-SW 247 0 min 0,000 mm 0,0 UV-I 0 W/m 6,8 C 26,8 km/h (4 Bft)
17.06.2016 13:05 19,4 C 21,8 C 44 % 1013,4 hPa 0,0 mm 13,7 km/h (3 Bft) W-SW 247 0 min 0,000 mm 0,0 UV-I 0 W/m 6,8 C 19,7 km/h (3 Bft)
17.06.2016 13:10 19,5 C 21,7 C 44 % 1013,4 hPa 0,0 mm 14,0 km/h (3 Bft) W-NW 292 0 min 0,000 mm 0,0 UV-I 0 W/m 6,9 C 24,7 km/h (4 Bft)
17.06.2016 13:15 19,8 C 21,9 C 44 % 1013,6 hPa 0,0 mm 13,4 km/h (3 Bft) W-NW 292 0 min 0,000 mm 0,0 UV-I 0 W/m 7,2 C 25,9 km/h (4 Bft)
17.06.2016 13:20 19,9 C 22,0 C 45 % 1013,6 hPa 0,0 mm 12,8 km/h (3 Bft) S 180 0 min 0,000 mm 0,0 UV-I 0 W/m 7,6 C 15,8 km/h (3 Bft)
17.06.2016 13:25 19,8 C 22,3 C 43 % 1013,6 hPa 0,0 mm 12,8 km/h (3 Bft) W-NW 292 0 min 0,000 mm 0,0 UV-I 0 W/m 6,9 C 20,6 km/h (4 Bft)
17.06.2016 13:30 20,0 C 22,3 C 43 % 1013,6 hPa 0,0 mm 11,9 km/h (2 Bft) NW 315 0 min 0,000 mm 0,0 UV-I 0 W/m 7,0 C 15,2 km/h (3 Bft)
17.06.2016 13:35 20,5 C 22,7 C 43 % 1013,8 hPa 0,0 mm 12,5 km/h (3 Bft) O-NO 67 0 min 0,000 mm 0,0 UV-I 0 W/m 7,5 C 14,6 km/h (3 Bft)
17.06.2016 13:40 20,2 C 22,7 C 43 % 1013,8 hPa 0,0 mm 13,4 km/h (3 Bft) W-NW 292 0 min 0,000 mm 0,0 UV-I 0 W/m 7,2 C 13,4 km/h (3 Bft)
17.06.2016 13:45 20,4 C 22,8 C 43 % 1013,8 hPa 0,0 mm 14,6 km/h (3 Bft) NW 315 0 min 0,000 mm 0,0 UV-I 0 W/m 7,4 C 18,8 km/h (3 Bft)
17.06.2016 13:50 20,0 C 22,1 C 44 % 1013,8 hPa 0,0 mm 14,9 km/h (3 Bft) W 270 0 min 0,000 mm 0,0 UV-I 0 W/m 7,4 C 24,4 km/h (4 Bft)
17.06.2016 13:55 19,9 C 22,0 C 43 % 1013,8 hPa 0,0 mm 18,5 km/h (3 Bft) NW 315 0 min 0,000 mm 0,0 UV-I 0 W/m 6,9 C 40,2 km/h (6 Bft)
17.06.2016 14:00 19,8 C 21,5 C 44 % 1013,8 hPa 0,0 mm 17,3 km/h (3 Bft) W 270 0 min 0,000 mm 0,0 UV-I 0 W/m 7,2 C 5,4 km/h (1 Bft)
17.06.2016 14:05 20,3 C 22,1 C 44 % 1013,8 hPa 0,0 mm 13,4 km/h (3 Bft) N-NW 337 0 min 0,000 mm 0,0 UV-I 0 W/m 7,6 C 11,6 km/h (2 Bft)
17.06.2016 14:10 20,7 C 22,3 C 46 % 1013,8 hPa 0,0 mm 9,8 km/h (2 Bft) S 180 0 min 0,000 mm 0,0 UV-I 0 W/m 8,7 C 5,7 km/h (1 Bft)
17.06.2016 14:15 20,8 C 23,0 C 42 % 1013,6 hPa 0,0 mm 10,4 km/h (2 Bft) S 180 0 min 0,000 mm 0,0 UV-I 0 W/m 7,4 C 16,1 km/h (3 Bft)
17.06.2016 14:20 19,4 C 22,5 C 43 % 1013,6 hPa 0,0 mm 14,9 km/h (3 Bft) W-NW 292 0 min 0,000 mm 0,0 UV-I 0 W/m 6,5 C 34,0 km/h (5 Bft)
17.06.2016 14:25 20,0 C 21,3 C 43 % 1013,6 hPa 0,0 mm 15,8 km/h (3 Bft) NW 315 0 min 0,000 mm 0,0 UV-I 0 W/m 7,0 C 16,7 km/h (3 Bft)
17.06.2016 14:30 20,1 C 21,8 C 43 % 1013,6 hPa 0,0 mm 12,5 km/h (3 Bft) W 270 0 min 0,000 mm 0,0 UV-I 0 W/m 7,1 C 18,5 km/h (3 Bft)
17.06.2016 14:35 20,2 C 22,5 C 42 % 1013,6 hPa 0,0 mm 12,8 km/h (3 Bft) S-SO 157 0 min 0,000 mm 0,0 UV-I 0 W/m 6,9 C 35,2 km/h (5 Bft)
17.06.2016 14:40 19,8 C 22,0 C 43 % 1013,6 hPa 0,0 mm 14,6 km/h (3 Bft) W-NW 292 0 min 0,000 mm 0,0 UV-I 0 W/m 6,9 C 24,1 km/h (4 Bft)
17.06.2016 14:45 20,4 C 22,0 C 43 % 1013,6 hPa 0,0 mm 16,4 km/h (3 Bft) W-SW 247 0 min 0,000 mm 0,0 UV-I 0 W/m 7,4 C 14,0 km/h (3 Bft)
17.06.2016 14:50 20,8 C 22,7 C 43 % 1013,6 hPa 0,0 mm 14,3 km/h (3 Bft) W-NW 292 0 min 0,000 mm 0,0 UV-I 0 W/m 7,8 C 31,9 km/h (5 Bft)
17.06.2016 14:55 20,3 C 22,3 C 44 % 1013,4 hPa 0,0 mm 13,7 km/h (3 Bft) NW 315 0 min 0,000 mm 0,0 UV-I 0 W/m 7,6 C 13,1 km/h (3 Bft)
17.06.2016 15:00 20,5 C 22,5 C 44 % 1013,4 hPa 0,0 mm 15,2 km/h (3 Bft) W 270 0 min 0,000 mm 0,0 UV-I 0 W/m 7,8 C 24,4 km/h (4 Bft)
17.06.2016 15:05 19,9 C 22,1 C 42 % 1013,4 hPa 0,0 mm 15,5 km/h (3 Bft) W-NW 292 0 min 0,000 mm 0,0 UV-I 0 W/m 6,6 C 22,7 km/h (4 Bft)
17.06.2016 15:10 20,3 C 22,0 C 43 % 1013,4 hPa 0,0 mm 15,8 km/h (3 Bft) W-SW 247 0 min 0,000 mm 0,0 UV-I 0 W/m 7,3 C 8,9 km/h (2 Bft)
17.06.2016 15:15 20,4 C 22,2 C 43 % 1013,4 hPa 0,0 mm 13,7 km/h (3 Bft) W-SW 247 0 min 0,000 mm 0,0 UV-I 0 W/m 7,4 C 12,2 km/h (2 Bft)
17.06.2016 15:20 20,6 C 22,5 C 43 % 1013,4 hPa 0,0 mm 12,5 km/h (3 Bft) W-SW 247 0 min 0,000 mm 0,0 UV-I 0 W/m 7,6 C 19,4 km/h (3 Bft)
17.06.2016 15:25 20,2 C 22,7 C 42 % 1013,4 hPa 0,0 mm 13,4 km/h (3 Bft) W-SW 247 0 min 0,000 mm 0,0 UV-I 0 W/m 6,9 C 18,2 km/h (3 Bft)
17.06.2016 15:30 20,6 C 22,5 C 44 % 1013,4 hPa 0,0 mm 14,3 km/h (3 Bft) NW 315 0 min 0,000 mm 0,0 UV-I 0 W/m 7,9 C 10,7 km/h (2 Bft)
17.06.2016 15:31 20,0 C 22,8 C 43 % 1013,6 hPa 0,0 mm 12,5 km/h (3 Bft) O-NO 67 0 min 0,000 mm 0,0 UV-I 0 W/m 7,0 C 27,1 km/h (4 Bft)
17.06.2016 15:35 20,0 C 22,8 C 43 % 1013,6 hPa 0,0 mm 12,5 km/h (3 Bft) O-NO 67 0 min 0,000 mm 0,0 UV-I 0 W/m 7,0 C 27,1 km/h (4 Bft)
17.06.2016 15:40 20,1 C 22,1 C 44 % 1013,6 hPa 0,0 mm 15,5 km/h (3 Bft) NW 315 0 min 0,000 mm 0,0 UV-I 0 W/m 7,5 C 25,9 km/h (4 Bft)
17.06.2016 15:45 20,5 C 22,5 C 44 % 1013,6 hPa 0,0 mm 15,5 km/h (3 Bft) W-NW 292 0 min 0,000 mm 0,0 UV-I 0 W/m 7,8 C 18,8 km/h (3 Bft)
17.06.2016 15:50 20,0 C 22,6 C 43 % 1013,6 hPa 0,0 mm 14,0 km/h (3 Bft) W-SW 247 0 min 0,000 mm 0,0 UV-I 0 W/m 7,0 C 9,2 km/h (2 Bft)
17.06.2016 15:55 18,7 C 21,9 C 44 % 1013,9 hPa 0,0 mm 15,5 km/h (3 Bft) W-SW 247 0 min 0,000 mm 0,0 UV-I 0 W/m 6,2 C 13,7 km/h (3 Bft)
17.06.2016 16:00 19,0 C 20,6 C 47 % 1013,9 hPa 0,0 mm 14,0 km/h (3 Bft) NW 315 0 min 0,000 mm 0,0 UV-I 0 W/m 7,4 C 28,3 km/h (4 Bft)
17.06.2016 16:05 18,5 C 20,6 C 47 % 1013,9 hPa 0,0 mm 15,8 km/h (3 Bft) W-NW 292 0 min 0,000 mm 0,0 UV-I 0 W/m 7,0 C 47,4 km/h (6 Bft)
17.06.2016 16:10 18,6 C 20,0 C 47 % 1013,9 hPa 0,0 mm 17,0 km/h (3 Bft) N-NW 337 0 min 0,000 mm 0,0 UV-I 0 W/m 7,1 C 25,9 km/h (4 Bft)
17.06.2016 16:15 19,0 C 20,9 C 47 % 1013,8 hPa 0,0 mm 18,2 km/h (3 Bft) NW 315 0 min 0,000 mm 0,0 UV-I 0 W/m 7,4 C 40,8 km/h (6 Bft)
17.06.2016 16:20 18,2 C 21,2 C 47 % 1013,8 hPa 0,0 mm 18,5 km/h (3 Bft) W 270 0 min 0,000 mm 0,0 UV-I 0 W/m 6,7 C 19,1 km/h (3 Bft)
17.06.2016 16:25 17,9 C 19,8 C 48 % 1013,8 hPa 0,0 mm 16,7 km/h (3 Bft) W-NW 292 0 min 0,000 mm 0,0 UV-I 0 W/m 6,7 C 24,1 km/h (4 Bft)
17.06.2016 16:30 18,0 C 20,8 C 47 % 1013,8 hPa 0,0 mm 14,9 km/h (3 Bft) W-SW 247 0 min 0,000 mm 0,0 UV-I 0 W/m 6,5 C 24,4 km/h (4 Bft)
17.06.2016 16:35 17,9 C 20,7 C 48 % 1013,8 hPa 0,0 mm 15,8 km/h (3 Bft) W-SW 247 0 min 0,000 mm 0,0 UV-I 0 W/m 6,7 C 27,1 km/h (4 Bft)
17.06.2016 16:40 18,1 C 21,2 C 48 % 1013,8 hPa 0,0 mm 17,9 km/h (3 Bft) W 270 0 min 0,000 mm 0,0 UV-I 0 W/m 6,9 C 16,7 km/h (3 Bft)
17.06.2016 16:45 18,2 C 21,9 C 47 % 1013,8 hPa 0,0 mm 17,9 km/h (3 Bft) W 270 0 min 0,000 mm 0,0 UV-I 0 W/m 6,7 C 33,7 km/h (5 Bft)
17.06.2016 16:50 18,3 C 22,1 C 48 % 1013,8 hPa 0,0 mm 16,7 km/h (3 Bft) W-SW 247 0 min 0,000 mm 0,0 UV-I 0 W/m 7,1 C 20,6 km/h (4 Bft)
17.06.2016 16:55 18,3 C 21,9 C 48 % 1014,1 hPa 0,0 mm 16,4 km/h (3 Bft) W 270 0 min 0,000 mm 0,0 UV-I 0 W/m 7,1 C 11,6 km/h (2 Bft)
17.06.2016 17:00 18,1 C 21,0 C 47 % 1014,1 hPa 0,0 mm 16,1 km/h (3 Bft) W-NW 292 0 min 0,000 mm 0,0 UV-I 0 W/m 6,6 C 14,6 km/h (3 Bft)
17.06.2016 17:05 18,0 C 19,7 C 49 % 1014,1 hPa 0,0 mm 15,2 km/h (3 Bft) W 270 0 min 0,000 mm 0,0 UV-I 0 W/m 7,1 C 14,9 km/h (3 Bft)
17.06.2016 17:10 17,5 C 19,1 C 48 % 1014,1 hPa 0,0 mm 14,0 km/h (3 Bft) NW 315 0 min 0,000 mm 0,0 UV-I 0 W/m 6,4 C 4,8 km/h (1 Bft)
17.06.2016 17:15 17,8 C 18,6 C 48 % 1014,3 hPa 0,0 mm 12,8 km/h (3 Bft) W-NW 292 0 min 0,000 mm 0,0 UV-I 0 W/m 6,6 C 36,1 km/h (5 Bft)
17.06.2016 17:20 18,0 C 18,7 C 48 % 1014,3 hPa 0,0 mm 14,0 km/h (3 Bft) NW 315 0 min 0,000 mm 0,0 UV-I 0 W/m 6,8 C 15,2 km/h (3 Bft)
17.06.2016 17:25 17,8 C 18,6 C 48 % 1014,3 hPa 0,0 mm 15,5 km/h (3 Bft) W 270 0 min 0,000 mm 0,0 UV-I 0 W/m 6,6 C 24,1 km/h (4 Bft)
17.06.2016 17:30 17,8 C 18,5 C 48 % 1014,3 hPa 0,0 mm 13,4 km/h (3 Bft) NW 315 0 min 0,000 mm 0,0 UV-I 0 W/m 6,6 C 7,7 km/h (2 Bft)
17.06.2016 17:35 17,6 C 18,6 C 49 % 1014,4 hPa 0,0 mm 10,1 km/h (2 Bft) W 270 0 min 0,000 mm 0,0 UV-I 0 W/m 6,8 C 11,9 km/h (2 Bft)
17.06.2016 17:40 17,6 C 18,5 C 50 % 1014,4 hPa 0,0 mm 8,3 km/h (2 Bft) W-SW 247 0 min 0,000 mm 0,0 UV-I 0 W/m 7,1 C 11,9 km/h (2 Bft)
17.06.2016 17:45 17,5 C 18,2 C 50 % 1014,4 hPa 0,0 mm 10,7 km/h (2 Bft) W 270 0 min 0,000 mm 0,0 UV-I 0 W/m 7,0 C 16,4 km/h (3 Bft)
17.06.2016 17:50 17,5 C 18,2 C 51 % 1014,4 hPa 0,0 mm 9,5 km/h (2 Bft) W-NW 292 0 min 0,000 mm 0,0 UV-I 0 W/m 7,3 C 11,9 km/h (2 Bft)
17.06.2016 17:55 17,3 C 18,1 C 50 % 1014,4 hPa 0,0 mm 7,5 km/h (2 Bft) SW 225 0 min 0,000 mm 0,0 UV-I 0 W/m 6,8 C 11,9 km/h (2 Bft)
17.06.2016 18:00 17,2 C 18,1 C 51 % 1014,4 hPa 0,0 mm 7,7 km/h (2 Bft) N-NW 337 0 min 0,000 mm 0,0 UV-I 0 W/m 7,0 C 7,2 km/h (2 Bft)
17.06.2016 18:05 17,2 C 18,1 C 52 % 1014,4 hPa 0,0 mm 8,6 km/h (2 Bft) W 270 0 min 0,000 mm 0,0 UV-I 0 W/m 7,3 C 19,7 km/h (3 Bft)
17.06.2016 18:10 17,2 C 18,0 C 51 % 1014,4 hPa 0,0 mm 8,9 km/h (2 Bft) O 90 0 min 0,000 mm 0,0 UV-I 0 W/m 7,0 C 25,0 km/h (4 Bft)
17.06.2016 18:15 16,9 C 17,7 C 50 % 1014,4 hPa 0,0 mm 10,7 km/h (2 Bft) NW 315 0 min 0,000 mm 0,0 UV-I 0 W/m 6,4 C 11,9 km/h (2 Bft)
17.06.2016 18:20 17,0 C 17,6 C 52 % 1014,4 hPa 0,0 mm 10,7 km/h (2 Bft) W-NW 292 0 min 0,000 mm 0,0 UV-I 0 W/m 7,1 C 11,9 km/h (2 Bft)
17.06.2016 18:25 17,5 C 17,9 C 53 % 1014,4 hPa 0,0 mm 8,0 km/h (2 Bft) NO 45 0 min 0,000 mm 0,0 UV-I 0 W/m 7,8 C 6,0 km/h (2 Bft)
17.06.2016 18:30 17,3 C 18,0 C 52 % 1014,4 hPa 0,0 mm 8,6 km/h (2 Bft) NW 315 0 min 0,000 mm 0,0 UV-I 0 W/m 7,3 C 8,0 km/h (2 Bft)
17.06.2016 18:31 17,1 C 17,9 C 52 % 1014,2 hPa 0,0 mm 8,6 km/h (2 Bft) O-SO 112 0 min 0,000 mm 0,0 UV-I 0 W/m 7,2 C 4,8 km/h (1 Bft)
17.06.2016 18:36 17,1 C 17,9 C 52 % 1014,2 hPa 0,0 mm 8,6 km/h (2 Bft) O-SO 112 0 min 0,000 mm 0,0 UV-I 0 W/m 7,2 C 4,8 km/h (1 Bft)
17.06.2016 18:40 16,8 C 17,7 C 52 % 1014,2 hPa 0,0 mm 8,9 km/h (2 Bft) W-NW 292 0 min 0,000 mm 0,0 UV-I 0 W/m 6,9 C 8,9 km/h (2 Bft)
17.06.2016 18:45 16,5 C 17,3 C 53 % 1014,2 hPa 0,0 mm 8,0 km/h (2 Bft) W-NW 292 0 min 0,000 mm 0,0 UV-I 0 W/m 6,9 C 6,6 km/h (2 Bft)
17.06.2016 18:50 16,4 C 17,1 C 54 % 1014,2 hPa 0,0 mm 7,2 km/h (2 Bft) W-SW 247 0 min 0,000 mm 0,0 UV-I 0 W/m 7,1 C 19,7 km/h (3 Bft)
17.06.2016 18:55 16,3 C 16,9 C 55 % 1014,8 hPa 0,0 mm 7,5 km/h (2 Bft) W-SW 247 0 min 0,000 mm 0,0 UV-I 0 W/m 7,2 C 11,9 km/h (2 Bft)
17.06.2016 19:00 16,2 C 16,7 C 54 % 1014,8 hPa 0,0 mm 10,1 km/h (2 Bft) NW 315 0 min 0,000 mm 0,0 UV-I 0 W/m 6,9 C 21,5 km/h (4 Bft)
17.06.2016 19:05 16,1 C 16,5 C 55 % 1014,8 hPa 0,0 mm 13,4 km/h (3 Bft) W-NW 292 0 min 0,000 mm 0,0 UV-I 0 W/m 7,1 C 8,9 km/h (2 Bft)
17.06.2016 19:10 16,3 C 16,6 C 56 % 1014,8 hPa 0,0 mm 12,8 km/h (3 Bft) NW 315 0 min 0,000 mm 0,0 UV-I 0 W/m 7,5 C 13,7 km/h (3 Bft)
17.06.2016 19:15 16,4 C 16,9 C 56 % 1015,0 hPa 0,0 mm 10,1 km/h (2 Bft) NW 315 0 min 0,000 mm 0,0 UV-I 0 W/m 7,6 C 16,4 km/h (3 Bft)
17.06.2016 19:20 16,7 C 17,5 C 56 % 1015,0 hPa 0,0 mm 9,8 km/h (2 Bft) W-SW 247 0 min 0,000 mm 0,0 UV-I 0 W/m 7,9 C 14,6 km/h (3 Bft)
17.06.2016 19:25 16,6 C 18,0 C 57 % 1015,0 hPa 0,0 mm 9,2 km/h (2 Bft) W-SW 247 0 min 0,000 mm 0,0 UV-I 0 W/m 8,0 C 14,0 km/h (3 Bft)
17.06.2016 19:30 16,4 C 17,7 C 56 % 1015,0 hPa 0,0 mm 8,6 km/h (2 Bft) W-SW 247 0 min 0,000 mm 0,0 UV-I 0 W/m 7,6 C 4,5 km/h (1 Bft)
17.06.2016 19:35 16,4 C 17,3 C 56 % 1015,2 hPa 0,0 mm 8,3 km/h (2 Bft) W-SW 247 0 min 0,000 mm 0,0 UV-I 0 W/m 7,6 C 13,1 km/h (3 Bft)
17.06.2016 19:40 16,3 C 17,1 C 57 % 1015,2 hPa 0,0 mm 8,9 km/h (2 Bft) W 270 0 min 0,000 mm 0,0 UV-I 0 W/m 7,8 C 17,6 km/h (3 Bft)
17.06.2016 19:45 16,2 C 16,9 C 57 % 1015,2 hPa 0,0 mm 8,9 km/h (2 Bft) SW 225 0 min 0,000 mm 0,0 UV-I 0 W/m 7,7 C 8,0 km/h (2 Bft)
17.06.2016 19:50 16,3 C 16,9 C 57 % 1015,2 hPa 0,0 mm 7,5 km/h (2 Bft) W-NW 292 0 min 0,000 mm 0,0 UV-I 0 W/m 7,8 C 5,7 km/h (1 Bft)
17.06.2016 19:55 16,7 C 17,9 C 56 % 1015,4 hPa 0,0 mm 6,3 km/h (2 Bft) W 270 0 min 0,000 mm 0,0 UV-I 0 W/m 7,9 C 17,6 km/h (3 Bft)
17.06.2016 20:00 16,9 C 18,7 C 56 % 1015,4 hPa 0,0 mm 7,7 km/h (2 Bft) W 270 0 min 0,000 mm 0,0 UV-I 0 W/m 8,1 C 5,4 km/h (1 Bft)
17.06.2016 20:05 17,2 C 19,7 C 56 % 1015,4 hPa 0,0 mm 7,7 km/h (2 Bft) NW 315 0 min 0,000 mm 0,0 UV-I 0 W/m 8,3 C 6,0 km/h (2 Bft)
17.06.2016 20:10 16,7 C 19,8 C 55 % 1015,4 hPa 0,0 mm 7,7 km/h (2 Bft) W 270 0 min 0,000 mm 0,0 UV-I 0 W/m 7,6 C 10,1 km/h (2 Bft)
17.06.2016 20:15 15,7 C 18,2 C 57 % 1015,6 hPa 0,0 mm 8,9 km/h (2 Bft) S 180 0 min 0,000 mm 0,0 UV-I 0 W/m 7,2 C 10,1 km/h (2 Bft)
17.06.2016 20:20 15,8 C 17,5 C 58 % 1015,6 hPa 0,0 mm 6,0 km/h (2 Bft) W 270 0 min 0,000 mm 0,0 UV-I 0 W/m 7,6 C 0,0 km/h (0 Bft)
17.06.2016 20:25 16,3 C 18,3 C 57 % 1015,6 hPa 0,0 mm 3,0 km/h (1 Bft) W 270 0 min 0,000 mm 0,0 UV-I 0 W/m 7,8 C 5,1 km/h (1 Bft)
17.06.2016 20:30 16,4 C 18,7 C 57 % 1015,6 hPa 0,0 mm 2,7 km/h (1 Bft) W 270 0 min 0,000 mm 0,0 UV-I 0 W/m 7,9 C 4,8 km/h (1 Bft)
17.06.2016 20:35 16,0 C 18,7 C 57 % 1015,8 hPa 0,0 mm 3,9 km/h (1 Bft) W 270 0 min 0,000 mm 0,0 UV-I 0 W/m 7,5 C 8,0 km/h (2 Bft)
17.06.2016 20:40 15,6 C 17,9 C 58 % 1015,8 hPa 0,0 mm 5,1 km/h (1 Bft) W 270 0 min 0,000 mm 0,0 UV-I 0 W/m 7,4 C 10,4 km/h (2 Bft)
17.06.2016 20:45 15,5 C 16,9 C 58 % 1015,8 hPa 0,0 mm 5,7 km/h (1 Bft) W 270 0 min 0,000 mm 0,0 UV-I 0 W/m 7,3 C 8,3 km/h (2 Bft)
17.06.2016 20:50 15,2 C 17,0 C 59 % 1015,8 hPa 0,0 mm 4,8 km/h (1 Bft) W 270 0 min 0,000 mm 0,0 UV-I 0 W/m 7,2 C 0,0 km/h (0 Bft)
17.06.2016 20:55 14,8 C 17,1 C 59 % 1015,8 hPa 0,0 mm 2,4 km/h (1 Bft) W 270 0 min 0,000 mm 0,0 UV-I 0 W/m 6,9 C 0,0 km/h (0 Bft)
17.06.2016 21:00 14,5 C 16,7 C 60 % 1015,8 hPa 0,0 mm 0,6 km/h (0 Bft) SW 225 0 min 0,000 mm 0,0 UV-I 0 W/m 6,8 C 0,0 km/h (0 Bft)
17.06.2016 21:05 14,2 C 15,5 C 60 % 1015,8 hPa 0,0 mm 0,0 km/h (0 Bft) O 90 0 min 0,000 mm 0,0 UV-I 0 W/m 6,5 C 0,0 km/h (0 Bft)
17.06.2016 21:10 14,0 C 14,8 C 61 % 1015,8 hPa 0,0 mm 0,0 km/h (0 Bft) S 180 0 min 0,000 mm 0,0 UV-I 0 W/m 6,6 C 0,0 km/h (0 Bft)
17.06.2016 21:15 13,8 C 14,1 C 62 % 1016,1 hPa 0,0 mm 1,2 km/h (1 Bft) S-SW 202 0 min 0,000 mm 0,0 UV-I 0 W/m 6,6 C 6,9 km/h (2 Bft)
17.06.2016 21:20 13,7 C 13,8 C 62 % 1016,1 hPa 0,0 mm 1,8 km/h (1 Bft) SW 225 0 min 0,000 mm 0,0 UV-I 0 W/m 6,6 C 0,0 km/h (0 Bft)
17.06.2016 21:25 13,5 C 13,5 C 63 % 1016,1 hPa 0,0 mm 2,4 km/h (1 Bft) S 180 0 min 0,000 mm 0,0 UV-I 0 W/m 6,6 C 3,0 km/h (1 Bft)
17.06.2016 21:30 13,5 C 13,4 C 63 % 1016,1 hPa 0,0 mm 1,2 km/h (1 Bft) SW 225 0 min 0,000 mm 0,0 UV-I 0 W/m 6,6 C 0,0 km/h (0 Bft)
17.06.2016 21:35 13,4 C 13,3 C 63 % 1016,4 hPa 0,0 mm 0,9 km/h (0 Bft) W-SW 247 0 min 0,000 mm 0,0 UV-I 0 W/m 6,5 C 0,0 km/h (0 Bft)
17.06.2016 21:36 13,3 C 13,2 C 64 % 1016,4 hPa 0,0 mm 0,6 km/h (0 Bft) SW 225 0 min 0,000 mm 0,0 UV-I 0 W/m 6,6 C 0,0 km/h (0 Bft)
17.06.2016 21:37 13,3 C 13,2 C 64 % 1016,4 hPa 0,0 mm 0,6 km/h (0 Bft) SW 225 0 min 0,000 mm 0,0 UV-I 0 W/m 6,6 C 0,0 km/h (0 Bft)
17.06.2016 21:40 13,3 C 13,2 C 64 % 1016,4 hPa 0,0 mm 0,6 km/h (0 Bft) SW 225 0 min 0,000 mm 0,0 UV-I 0 W/m 6,6 C 0,0 km/h (0 Bft)
17.06.2016 21:45 13,2 C 13,1 C 64 % 1016,4 hPa 0,0 mm 0,0 km/h (0 Bft) W-SW 247 0 min 0,000 mm 0,0 UV-I 0 W/m 6,5 C 0,0 km/h (0 Bft)
17.06.2016 21:50 13,3 C 13,2 C 64 % 1016,4 hPa 0,0 mm 0,0 km/h (0 Bft) SW 225 0 min 0,000 mm 0,0 UV-I 0 W/m 6,6 C 0,0 km/h (0 Bft)
17.06.2016 21:55 13,3 C 13,2 C 64 % 1016,8 hPa 0,0 mm 0,0 km/h (0 Bft) SW 225 0 min 0,000 mm 0,0 UV-I 0 W/m 6,6 C 0,0 km/h (0 Bft)
17.06.2016 22:00 13,3 C 13,2 C 65 % 1016,8 hPa 0,0 mm 0,3 km/h (0 Bft) W 270 0 min 0,000 mm 0,0 UV-I 0 W/m 6,9 C 4,5 km/h (1 Bft)
17.06.2016 22:05 13,2 C 13,1 C 65 % 1016,8 hPa 0,0 mm 0,3 km/h (0 Bft) S 180 0 min 0,000 mm 0,0 UV-I 0 W/m 6,8 C 0,0 km/h (0 Bft)
17.06.2016 22:10 13,2 C 13,1 C 65 % 1016,8 hPa 0,0 mm 0,3 km/h (0 Bft) W-SW 247 0 min 0,000 mm 0,0 UV-I 0 W/m 6,8 C 0,0 km/h (0 Bft)
17.06.2016 22:15 13,0 C 13,0 C 65 % 1016,7 hPa 0,0 mm 0,0 km/h (0 Bft) W-SW 247 0 min 0,000 mm 0,0 UV-I 0 W/m 6,6 C 0,0 km/h (0 Bft)
17.06.2016 22:20 12,9 C 12,9 C 67 % 1016,7 hPa 0,0 mm 0,0 km/h (0 Bft) S-SO 157 0 min 0,000 mm 0,0 UV-I 0 W/m 6,9 C 0,0 km/h (0 Bft)
17.06.2016 22:25 12,7 C 12,6 C 67 % 1016,7 hPa 0,0 mm 0,0 km/h (0 Bft) S-SO 157 0 min 0,000 mm 0,0 UV-I 0 W/m 6,7 C 0,0 km/h (0 Bft)
17.06.2016 22:30 12,6 C 12,5 C 67 % 1016,7 hPa 0,0 mm 0,0 km/h (0 Bft) S 180 0 min 0,000 mm 0,0 UV-I 0 W/m 6,6 C 0,0 km/h (0 Bft)
17.06.2016 22:35 12,5 C 12,4 C 68 % 1016,6 hPa 0,0 mm 0,0 km/h (0 Bft) S-SO 157 0 min 0,000 mm 0,0 UV-I 0 W/m 6,8 C 0,0 km/h (0 Bft)
17.06.2016 22:40 12,5 C 12,3 C 68 % 1016,6 hPa 0,0 mm 0,0 km/h (0 Bft) S-SO 157 0 min 0,000 mm 0,0 UV-I 0 W/m 6,8 C 0,0 km/h (0 Bft)
17.06.2016 22:41 12,5 C 12,3 C 68 % 1016,6 hPa 0,0 mm 0,0 km/h (0 Bft) SO 135 0 min 0,000 mm 0,0 UV-I 0 W/m 6,8 C 0,0 km/h (0 Bft)
17.06.2016 22:46 12,4 C 12,3 C 70 % 1016,6 hPa 0,0 mm 0,0 km/h (0 Bft) O-SO 112 0 min 0,000 mm 0,0 UV-I 0 W/m 7,1 C 0,0 km/h (0 Bft)
17.06.2016 22:50 12,4 C 12,3 C 70 % 1016,6 hPa 0,0 mm 0,0 km/h (0 Bft) O-SO 112 0 min 0,000 mm 0,0 UV-I 0 W/m 7,1 C 0,0 km/h (0 Bft)
17.06.2016 22:55 12,1 C 12,0 C 70 % 1016,6 hPa 0,0 mm 0,0 km/h (0 Bft) SO 135 0 min 0,000 mm 0,0 UV-I 0 W/m 6,8 C 0,0 km/h (0 Bft)
17.06.2016 23:00 11,8 C 11,7 C 70 % 1016,6 hPa 0,0 mm 0,0 km/h (0 Bft) S-SO 157 0 min 0,000 mm 0,0 UV-I 0 W/m 6,5 C 0,0 km/h (0 Bft)
17.06.2016 23:05 11,4 C 11,3 C 71 % 1016,6 hPa 0,0 mm 0,0 km/h (0 Bft) SO 135 0 min 0,000 mm 0,0 UV-I 0 W/m 6,3 C 0,0 km/h (0 Bft)
17.06.2016 23:10 11,3 C 11,1 C 72 % 1016,6 hPa 0,0 mm 0,0 km/h (0 Bft) O-NO 67 0 min 0,000 mm 0,0 UV-I 0 W/m 6,4 C 0,0 km/h (0 Bft)
17.06.2016 23:15 11,0 C 10,8 C 72 % 1016,6 hPa 0,0 mm 0,0 km/h (0 Bft) W-SW 247 0 min 0,000 mm 0,0 UV-I 0 W/m 6,2 C 0,0 km/h (0 Bft)
17.06.2016 23:20 11,0 C 10,8 C 72 % 1016,6 hPa 0,0 mm 0,0 km/h (0 Bft) N 360 0 min 0,000 mm 0,0 UV-I 0 W/m 6,2 C 0,0 km/h (0 Bft)
17.06.2016 23:25 10,9 C 10,6 C 74 % 1016,6 hPa 0,0 mm 0,0 km/h (0 Bft) O-NO 67 0 min 0,000 mm 0,0 UV-I 0 W/m 6,5 C 0,0 km/h (0 Bft)
17.06.2016 23:30 10,6 C 10,4 C 74 % 1016,6 hPa 0,0 mm 0,0 km/h (0 Bft) N-NW 337 0 min 0,000 mm 0,0 UV-I 0 W/m 6,2 C 0,0 km/h (0 Bft)
17.06.2016 23:35 10,4 C 10,1 C 74 % 1016,7 hPa 0,0 mm 0,0 km/h (0 Bft) NO 45 0 min 0,000 mm 0,0 UV-I 0 W/m 6,0 C 0,0 km/h (0 Bft)
17.06.2016 23:40 10,2 C 9,9 C 74 % 1016,7 hPa 0,0 mm 0,0 km/h (0 Bft) N 360 0 min 0,000 mm 0,0 UV-I 0 W/m 5,8 C 0,0 km/h (0 Bft)
17.06.2016 23:45 10,0 C 9,7 C 75 % 1016,7 hPa 0,0 mm 0,0 km/h (0 Bft) N-NO 22 0 min 0,000 mm 0,0 UV-I 0 W/m 5,8 C 0,0 km/h (0 Bft)
17.06.2016 23:50 9,9 C 9,6 C 76 % 1016,7 hPa 0,0 mm 0,0 km/h (0 Bft) N-NW 337 0 min 0,000 mm 0,0 UV-I 0 W/m 5,9 C 0,0 km/h (0 Bft)
17.06.2016 23:55 9,8 C 9,4 C 76 % 1016,7 hPa 0,0 mm 0,0 km/h (0 Bft) S-SO 157 0 min 0,000 mm 0,0 UV-I 0 W/m 5,8 C 0,0 km/h (0 Bft)
17.06.2016 23:56 9,8 C 9,4 C 76 % 1016,7 hPa 0,0 mm 0,0 km/h (0 Bft) W-NW 292 0 min 0,000 mm 0,0 UV-I 0 W/m 5,8 C 0,0 km/h (0 Bft)
_ Min-Zeit 05:50 05:50 15:25 01:30 - 23:56 - - - - - - 05:50 23:56
Minimum _ 7,2 C 7,0 C 42 % 1005,4 hPa - 0,0 km/h (0 Bft) - - - - - - 5,3 C 0,0 km/h (0 Bft)
_ Max-Zeit 14:50 14:15 08:15 22:10 06:40 16:20 - - 23:56 23:56 23:56 23:56 09:55 16:05
Maximum _ 20,8 C 23,0 C 88 % 1016,8 hPa 0,7 mm 18,5 km/h
W (3 Bft)
- - 0 min 0,000 mm 0,0 UV-I 0 W/m 10,3 C 47,4 km/h
N (6 Bft)
Durchschnitt _ 13,3 C 14,2 C 69 % 1011,4 hPa #8,2 mm 5,8 km/h (1 Bft) W - #0 min. #0,000 mm 0,0 UV-I 0 W/m 7,1 C 8,6 km/h (2 Bft)